FW3224 Weather Reports


time (UTC)temp
C
wind
direction
speed
KPH
gust
KPH
rain 1hr
cm
rain 24hr
cm
rain mn
cm
humidity
%
barometer
mb
20240222120020 24 297 0.0 0.0 0.00 0.00 0.00 88 1009.5
20240222115520 24 297 0.0 0.0 0.00 0.00 0.00 88 1009.6
20240222115019 24 297 0.0 0.0 0.00 0.00 0.00 88 1009.6
20240222114519 24 297 0.0 0.0 0.00 0.00 0.00 88 1009.8
20240222114019 24 297 0.0 0.0 0.00 0.00 0.00 88 1009.9
20240222113519 24 297 0.0 0.0 0.00 0.00 0.00 88 1009.9
20240222113026 24 297 0.0 0.0 0.00 0.00 0.00 87 1010.0
20240222112519 24 297 0.0 0.0 0.00 0.00 0.00 87 1010.1
20240222112018 24 297 0.0 0.0 0.00 0.00 0.00 87 1010.0
20240222111518 24 297 0.0 0.0 0.00 0.00 0.00 87 1010.1
20240222111019 24 297 0.0 0.0 0.00 0.00 0.00 87 1010.0
20240222110522 24 297 0.0 0.0 0.00 0.00 0.00 87 1010.0
20240222110023 24 26 0.0 0.0 0.00 0.00 0.00 87 1009.9
20240222105518 24 29 0.0 0.0 0.00 0.00 0.00 87 1009.9
20240222105017 24 35 0.0 0.0 0.00 0.00 0.00 87 1009.9
20240222104517 24 331 0.0 0.0 0.00 0.00 0.00 87 1009.9
20240222104017 24 331 0.0 0.0 0.00 0.00 0.00 87 1009.9
20240222103519 24 331 0.0 0.0 0.00 0.00 0.00 86 1010.0
20240222103022 24 331 0.0 0.0 0.00 0.00 0.00 86 1010.1
20240222102516 24 328 0.0 0.0 0.00 0.00 0.00 86 1010.1
20240222102016 24 326 0.0 0.0 0.00 0.00 0.00 86 1010.0
20240222101516 24 317 0.0 0.0 0.00 0.00 0.00 86 1010.0
20240222101015 24 317 0.0 0.0 0.00 0.00 0.00 86 1010.0
20240222100515 24 317 0.0 0.0 0.00 0.00 0.00 86 1010.0
20240222100020 24 16 0.0 0.0 0.00 0.00 0.00 86 1010.0
20240222095515 24 319 0.0 0.0 0.00 0.00 0.00 85 1009.9
20240222095020 24 292 0.0 0.0 0.00 0.00 0.00 85 1010.0
20240222094521 24 281 0.0 0.0 0.00 0.00 0.00 85 1010.0
20240222094020 25 335 0.0 0.0 0.00 0.00 0.00 85 1009.9
20240222093514 25 317 0.0 0.0 0.00 0.00 0.00 85 1009.8
20240222093015 25 309 0.0 0.0 0.00 0.00 0.00 85 1009.8
20240222092515 24 306 0.0 0.0 0.00 0.00 0.00 85 1009.8
20240222092014 24 335 0.0 0.0 0.00 0.00 0.00 84 1009.7
20240222091514 24 317 0.0 0.0 0.00 0.00 0.00 84 1009.8
20240222091014 24 317 0.0 0.0 0.00 0.00 0.00 84 1009.7
20240222090516 24 300 0.0 0.0 0.00 0.00 0.00 84 1009.7
20240222090013 24 300 0.0 0.0 0.00 0.00 0.00 84 1009.7
20240222085513 25 300 0.0 0.0 0.00 0.00 0.00 84 1009.6
20240222085014 25 43 0.0 0.0 0.00 0.00 0.00 84 1009.6
20240222084516 25 25 0.0 0.0 0.00 0.00 0.00 83 1009.5
20240222084013 25 26 0.0 0.0 0.00 0.00 0.00 83 1009.6
20240222083515 25 26 0.0 0.0 0.00 0.00 0.00 82 1009.5
20240222083015 25 327 0.0 0.0 0.00 0.00 0.00 82 1009.5
20240222082513 25 343 0.0 0.0 0.00 0.00 0.00 82 1009.4
20240222082012 25 342 0.0 0.0 0.00 0.00 0.00 81 1009.4
20240222081512 25 218 0.0 0.0 0.00 0.00 0.00 81 1009.4
20240222081012 25 218 0.0 0.0 0.00 0.00 0.00 80 1009.4
20240222080512 25 218 0.0 0.0 0.00 0.00 0.00 80 1009.4
20240222080012 25 215 0.0 0.0 0.00 0.00 0.00 80 1009.3
20240222075512 25 215 0.0 0.0 0.00 0.00 0.00 81 1009.3
20240222075011 25 204 0.0 0.0 0.00 0.00 0.00 81 1009.3
20240222074511 25 205 0.0 0.0 0.00 0.00 0.00 80 1009.3
20240222074011 25 140 0.0 0.0 0.00 0.00 0.00 80 1009.3
20240222073510 25 140 0.0 0.0 0.00 0.00 0.00 80 1009.3
20240222073011 26 345 0.0 0.0 0.00 0.00 0.00 81 1009.2
20240222072511 26 56 0.0 0.0 0.00 0.00 0.00 80 1009.1
20240222072008 26 19 0.0 0.0 0.00 0.00 0.00 80 1009.1
20240222071507 26 19 0.0 0.0 0.00 0.00 0.00 80 1009.2
20240222071006 26 263 0.0 0.0 0.00 0.00 0.00 79 1009.1
20240222070504 26 69 0.0 0.0 0.00 0.00 0.00 79 1009.1
20240222070004 26 106 0.0 0.0 0.00 0.00 0.00 78 1009.1
20240222065502 26 56 0.0 0.0 0.00 0.00 0.00 78 1009.1
20240222065001 26 342 0.0 0.0 0.00 0.00 0.00 77 1009.0
20240222064559 27 26 0.0 0.0 0.00 0.00 0.00 76 1009.0
20240222064058 27 111 0.0 0.0 0.00 0.00 0.00 75 1008.9
20240222063556 27 343 0.0 0.0 0.00 0.00 0.00 75 1008.9
20240222063055 27 62 0.0 0.0 0.00 0.00 0.00 75 1008.9
20240222062554 27 76 0.0 0.0 0.00 0.00 0.00 75 1008.9
20240222062052 27 327 0.0 0.0 0.00 0.00 0.00 74 1008.9
20240222061551 27 65 0.0 0.0 0.00 0.00 0.00 74 1008.9
20240222061049 27 68 0.0 0.0 0.00 0.00 0.00 73 1008.9
20240222060547 27 48 0.0 0.0 0.00 0.00 0.00 73 1008.9
20240222060048 27 75 0.0 0.0 0.00 0.00 0.00 73 1008.9
20240222055545 28 49 0.0 0.0 0.00 0.00 0.00 72 1008.9
20240222055043 28 39 0.0 0.0 0.00 0.00 0.00 72 1008.9
20240222054547 28 32 0.0 0.0 0.00 0.00 0.00 71 1008.9
20240222054041 28 97 0.0 0.0 0.00 0.00 0.00 71 1009.0
20240222053539 28 360 0.0 0.0 0.00 0.00 0.00 72 1009.0
20240222053038 28 78 0.0 0.0 0.00 0.00 0.00 72 1009.0
20240222052536 28 55 0.0 0.0 0.00 0.00 0.00 71 1009.0
20240222052035 28 86 0.0 0.0 0.00 0.00 0.00 70 1009.1
20240222051553 28 93 0.0 0.0 0.00 0.00 0.00 70 1009.1
20240222051034 28 71 0.0 0.0 0.00 0.00 0.00 69 1009.1
20240222050529 28 56 0.0 0.0 0.00 0.00 0.00 69 1009.1
20240222050042 29 355 0.0 0.0 0.00 0.00 0.00 69 1009.2
20240222045530 29 59 0.0 0.0 0.00 0.00 0.00 69 1009.3
20240222045026 29 78 0.0 0.0 0.00 0.00 0.00 69 1009.3
20240222044529 29 105 0.0 0.0 0.00 0.00 0.00 69 1009.4
20240222044023 29 78 0.0 0.0 0.00 0.00 0.00 69 1009.5
20240222043522 30 89 0.0 0.0 0.00 0.00 0.00 68 1009.5
20240222043020 30 79 0.0 0.0 0.00 0.00 0.00 68 1009.6
20240222042518 30 57 0.0 0.0 0.00 0.00 0.00 68 1009.6
20240222042017 30 132 0.0 0.0 0.00 0.00 0.00 68 1009.7
20240222041515 30 129 0.0 0.0 0.00 0.00 0.00 67 1009.7
20240222041016 30 355 0.0 0.0 0.00 0.00 0.00 67 1009.8
20240222040513 30 43 0.0 0.0 0.00 0.00 0.00 68 1009.9
20240222040012 29 271 0.0 0.0 0.00 0.00 0.00 69 1010.0
20240222035510 29 117 0.0 0.0 0.00 0.00 0.00 71 1010.1
20240222035010 29 98 0.0 0.0 0.00 0.00 0.00 70 1010.2
20240222034509 28 111 0.0 0.0 0.00 0.00 0.00 71 1010.3
20240222034007 28 59 0.0 0.0 0.00 0.00 0.00 69 1010.4
20240222033506 28 339 0.0 0.0 0.00 0.00 0.00 68 1010.5
20240222033012 29 108 0.0 0.0 0.00 0.00 0.00 67 1010.6
20240222032504 30 190 0.0 0.0 0.00 0.00 0.00 68 1010.6
20240222032003 30 96 0.0 0.0 0.00 0.00 0.00 68 1010.7
20240222031502 29 120 0.0 0.0 0.00 0.00 0.00 70 1010.8
20240222031100 29 173 0.0 0.0 0.00 0.00 0.00 71 1010.9
20240222030558 29 57 0.0 0.0 0.00 0.00 0.00 69 1011.1
20240222030057 29 31 0.0 0.0 0.00 0.00 0.00 69 1011.1
20240222025556 29 96 0.0 0.0 0.00 0.00 0.00 71 1011.2
20240222025055 29 102 0.0 0.0 0.00 0.00 0.00 71 1011.2
20240222024554 28 154 0.0 0.0 0.00 0.00 0.00 72 1011.4
20240222024053 28 10 0.0 0.0 0.00 0.00 0.00 72 1011.5
20240222023553 28 112 0.0 0.0 0.00 0.00 0.00 73 1011.5
20240222023103 28 112 0.0 0.0 0.00 0.00 0.00 72 1011.7
20240222022556 28 108 0.0 0.0 0.00 0.00 0.00 71 1011.7
20240222022049 28 130 0.0 0.0 0.00 0.00 0.00 68 1011.8
20240222021553 28 128 0.0 0.0 0.00 0.00 0.00 70 1011.9
20240222021048 28 65 0.0 0.0 0.00 0.00 0.00 73 1012.0
20240222020547 28 135 0.0 0.0 0.00 0.00 0.00 73 1012.1
20240222020045 28 325 0.0 0.0 0.00 0.00 0.00 73 1012.2
20240222015544 28 261 0.0 0.0 0.00 0.00 0.00 68 1012.3
20240222015043 27 282 0.0 0.0 0.00 0.00 0.00 71 1012.3
20240222014541 27 296 0.0 0.0 0.00 0.00 0.00 71 1012.3
20240222014041 27 246 0.0 0.0 0.00 0.00 0.00 71 1012.4
20240222013540 27 267 0.0 0.0 0.00 0.00 0.00 73 1012.6
20240222013039 27 208 0.0 0.0 0.00 0.00 0.00 73 1012.6
20240222012537 27 192 0.0 0.0 0.00 0.00 0.00 74 1012.7
20240222012041 26 156 0.0 0.0 0.00 0.00 0.00 75 1012.7
20240222011538 26 242 0.0 0.0 0.00 0.00 0.00 75 1012.9
20240222011033 26 187 0.0 0.0 0.00 0.00 0.00 75 1012.9
20240222010534 26 298 0.0 0.0 0.00 0.00 0.00 75 1013.0
20240222010033 26 251 0.0 0.0 0.00 0.00 0.00 76 1013.1
20240222005531 26 320 0.0 0.0 0.00 0.00 0.00 76 1013.2
20240222005033 26 254 0.0 0.0 0.00 0.00 0.00 76 1013.2
20240222004530 26 252 0.0 0.0 0.00 0.00 0.00 77 1013.3
20240222004028 26 189 0.0 0.0 0.00 0.00 0.00 76 1013.4
20240222003529 26 197 0.0 0.0 0.00 0.00 0.00 76 1013.6
20240222003027 26 238 0.0 0.0 0.00 0.00 0.00 77 1013.6
20240222002526 26 184 0.0 0.0 0.00 0.00 0.00 78 1013.6
20240222002024 25 201 0.0 0.0 0.00 0.00 0.00 79 1013.7
20240222001522 25 119 0.0 0.0 0.00 0.00 0.00 80 1013.8
20240222001021 25 217 0.0 0.0 0.00 0.00 0.00 80 1013.8
20240222000521 25 223 0.0 0.0 0.00 0.00 0.00 81 1013.9
20240222000020 25 184 0.0 0.0 0.00 0.00 0.00 81 1013.9
20240221235523 25 254 0.0 0.0 0.00 0.00 0.00 82 1013.9
20240221235020 25 254 0.0 0.0 0.00 0.00 0.00 81 1013.9
20240221234531 25 136 0.0 0.0 0.00 0.00 0.00 83 1013.9
20240221234017 25 246 0.0 0.0 0.00 0.00 0.00 83 1014.0
20240221233517 25 260 0.0 0.0 0.00 0.00 0.00 83 1014.0
20240221233115 25 210 0.0 0.0 0.00 0.00 0.00 83 1014.1
20240221232514 24 237 0.0 0.0 0.00 0.00 0.00 85 1014.1
20240221232014 24 196 0.0 0.0 0.00 0.00 0.00 84 1014.1
20240221231514 24 254 0.0 0.0 0.00 0.00 0.00 86 1014.2
20240221231011 24 200 0.0 0.0 0.00 0.00 0.00 89 1014.2
20240221230514 23 221 0.0 0.0 0.00 0.00 0.00 90 1014.3
20240221230009 23 194 0.0 0.0 0.00 0.00 0.00 92 1014.3
20240221225507 23 253 0.0 0.0 0.00 0.00 0.00 93 1014.3
20240221225008 22 239 0.0 0.0 0.00 0.00 0.00 94 1014.4
20240221224508 22 235 0.0 0.0 0.00 0.00 0.00 95 1014.4
20240221224004 22 211 0.0 0.0 0.00 0.00 0.00 95 1014.5
20240221223504 22 181 0.0 0.0 0.00 0.00 0.00 96 1014.5
20240221223003 22 238 0.0 0.0 0.00 0.00 0.00 97 1014.4
20240221222502 22 208 0.0 0.0 0.00 0.00 0.00 97 1014.5
20240221222101 21 208 0.0 0.0 0.00 0.00 0.00 97 1014.5
20240221221600 21 217 0.0 0.0 0.00 0.00 0.00 97 1014.5
20240221221100 21 217 0.0 0.0 0.00 0.00 0.00 97 1014.5
20240221220600 21 217 0.0 0.0 0.00 0.00 0.00 97 1014.5
20240221220100 21 217 0.0 0.0 0.00 0.00 0.00 97 1014.5
20240221215559 21 217 0.0 0.0 0.00 0.00 0.00 97 1014.6
20240221215059 21 217 0.0 0.0 0.00 0.00 0.00 97 1014.5
20240221214601 21 218 0.0 0.0 0.00 0.00 0.00 97 1014.4
20240221214059 21 218 0.0 0.0 0.00 0.00 0.00 97 1014.4
20240221213558 21 217 0.0 0.0 0.00 0.00 0.00 97 1014.3
20240221213058 21 217 0.0 0.0 0.00 0.00 0.00 98 1014.3
20240221212558 21 218 0.0 0.0 0.00 0.00 0.00 98 1014.2
20240221212058 21 209 0.0 0.0 0.00 0.00 0.00 98 1014.2
20240221211608 21 209 0.0 0.0 0.00 0.00 0.00 98 1014.2
20240221211057 21 207 0.0 0.0 0.00 0.00 0.00 98 1014.1
20240221210557 21 206 0.0 0.0 0.00 0.00 0.00 98 1014.1
20240221210100 21 205 0.0 0.0 0.00 0.00 0.00 98 1014.1
20240221205557 21 204 0.0 0.0 0.00 0.00 0.00 98 1014.1
20240221205057 21 185 0.0 0.0 0.00 0.00 0.00 98 1014.0
20240221204602 21 227 0.0 0.0 0.00 0.00 0.00 98 1014.0
20240221204055 21 220 0.0 0.0 0.00 0.00 0.00 98 1013.9
20240221203557 21 219 0.0 0.0 0.00 0.00 0.00 98 1013.9
20240221203104 21 217 0.0 0.0 0.00 0.00 0.00 98 1013.9
20240221202556 21 217 0.0 0.0 0.00 0.00 0.00 98 1013.9
20240221202055 21 217 0.0 0.0 0.00 0.00 0.00 98 1013.9
20240221201555 21 214 0.0 0.0 0.00 0.00 0.00 98 1013.8
20240221201056 21 149 0.0 0.0 0.00 0.00 0.00 98 1013.7
20240221200555 21 142 0.0 0.0 0.00 0.00 0.00 98 1013.6
20240221200058 21 142 0.0 0.0 0.00 0.00 0.00 98 1013.6
20240221195555 21 142 0.0 0.0 0.00 0.00 0.00 98 1013.6
20240221195058 21 142 0.0 0.0 0.00 0.00 0.00 98 1013.5
20240221194555 21 142 0.0 0.0 0.00 0.00 0.00 98 1013.5
20240221194056 21 142 0.0 0.0 0.00 0.00 0.00 98 1013.4
20240221193555 21 142 0.0 0.0 0.00 0.00 0.00 98 1013.4
20240221193053 21 142 0.0 0.0 0.00 0.00 0.00 98 1013.3
20240221192553 21 142 0.0 0.0 0.00 0.00 0.00 98 1013.3
20240221192053 21 123 0.0 0.0 0.00 0.00 0.00 98 1013.2
20240221191552 21 121 0.0 0.0 0.00 0.00 0.00 98 1013.1
20240221191052 21 121 0.0 0.0 0.00 0.00 0.00 98 1013.0
20240221190552 21 119 0.0 0.0 0.00 0.00 0.00 98 1013.0
20240221190055 21 119 0.0 0.0 0.00 0.00 0.00 98 1012.9
20240221185553 21 119 0.0 0.0 0.00 0.00 0.00 98 1013.1
20240221185051 21 119 0.0 0.0 0.00 0.00 0.00 98 1013.0
20240221184603 21 119 0.0 0.0 0.00 0.00 0.00 98 1012.9
20240221184051 21 119 0.0 0.0 0.00 0.00 0.00 98 1012.8
20240221183551 21 119 0.0 0.0 0.00 0.00 0.00 98 1012.8
20240221183051 21 128 0.0 0.0 0.00 0.00 0.00 98 1012.8
20240221182552 21 130 0.0 0.0 0.00 0.00 0.00 98 1012.8
20240221182050 21 130 0.0 0.0 0.00 0.00 0.00 98 1012.7
20240221181611 21 130 0.0 0.0 0.00 0.00 0.00 98 1012.8
20240221181050 21 130 0.0 0.0 0.00 0.00 0.00 98 1012.7
20240221180550 21 130 0.0 0.0 0.00 0.00 0.00 98 1012.8
20240221180050 21 130 0.0 0.0 0.00 0.00 0.00 98 1012.8
20240221175550 21 130 0.0 0.0 0.00 0.00 0.00 97 1012.8
20240221175050 21 128 0.0 0.0 0.00 0.00 0.00 97 1012.8
20240221174550 21 128 0.0 0.0 0.00 0.00 0.00 97 1012.8
20240221174049 21 129 0.0 0.0 0.00 0.00 0.00 97 1012.7
20240221173549 21 128 0.0 0.0 0.00 0.00 0.00 97 1012.7
20240221173107 21 128 0.0 0.0 0.00 0.00 0.00 97 1012.7
20240221172549 21 128 0.0 0.0 0.00 0.00 0.00 97 1012.7
20240221172048 21 127 0.0 0.0 0.00 0.00 0.00 97 1012.8
20240221171548 21 126 0.0 0.0 0.00 0.00 0.00 97 1012.7
20240221171048 21 117 0.0 0.0 0.00 0.00 0.00 97 1012.7
20240221170547 21 117 0.0 0.0 0.00 0.00 0.00 97 1012.6
20240221170047 21 117 0.0 0.0 0.00 0.00 0.00 97 1012.7
20240221165547 21 117 0.0 0.0 0.00 0.00 0.00 97 1012.8
20240221165046 21 117 0.0 0.0 0.00 0.00 0.00 97 1012.8
20240221164547 21 170 0.0 0.0 0.00 0.00 0.00 97 1012.8
20240221164045 21 171 0.0 0.0 0.00 0.00 0.00 97 1012.9
20240221163548 21 171 0.0 0.0 0.00 0.00 0.00 97 1012.8
20240221163045 21 171 0.0 0.0 0.00 0.00 0.00 97 1012.9
20240221162544 21 171 0.0 0.0 0.00 0.00 0.00 97 1012.9
20240221162043 21 171 0.0 0.0 0.00 0.00 0.00 97 1013.1
20240221161543 21 171 0.0 0.0 0.00 0.00 0.00 97 1013.1
20240221161043 21 171 0.0 0.0 0.00 0.00 0.00 97 1013.1
20240221160543 21 171 0.0 0.0 0.00 0.00 0.00 97 1013.1
20240221160042 21 171 0.0 0.0 0.00 0.00 0.00 97 1013.1
20240221155542 21 171 0.0 0.0 0.00 0.00 0.00 97 1013.1
20240221155041 21 171 0.0 0.0 0.00 0.00 0.00 97 1013.1
20240221154541 21 171 0.0 0.0 0.00 0.00 0.00 97 1013.2
20240221154040 21 171 0.0 0.0 0.00 0.00 0.00 97 1013.3
20240221153640 21 171 0.0 0.0 0.00 0.00 0.00 97 1013.4
20240221153046 21 171 0.0 0.0 0.00 0.00 0.00 97 1013.3
20240221152539 21 171 0.0 0.0 0.00 0.00 0.00 97 1013.3
20240221152038 21 171 0.0 0.0 0.00 0.00 0.00 97 1013.4
20240221151545 21 171 0.0 0.0 0.00 0.00 0.00 96 1013.4
20240221151037 21 171 0.0 0.0 0.00 0.00 0.00 97 1013.5
20240221150536 21 171 0.0 0.0 0.00 0.00 0.00 97 1013.6
20240221150036 21 171 0.0 0.0 0.00 0.00 0.00 96 1013.6
20240221145536 21 171 0.0 0.0 0.00 0.03 0.00 96 1013.7
20240221145036 21 171 0.0 0.0 0.00 0.03 0.00 96 1013.7
20240221144536 21 171 0.0 0.0 0.00 0.03 0.00 96 1013.7
20240221144035 21 171 0.0 0.0 0.00 0.03 0.00 96 1013.6
20240221143534 21 171 0.0 0.0 0.00 0.03 0.00 96 1013.6
20240221143034 21 171 0.0 0.0 0.00 0.03 0.00 96 1013.9
20240221142536 21 171 0.0 0.0 0.00 0.03 0.00 96 1014.0
20240221142032 21 171 0.0 0.0 0.00 0.03 0.00 96 1014.0
20240221141537 21 171 0.0 0.0 0.00 0.03 0.00 96 1014.1
20240221141031 21 171 0.0 0.0 0.00 0.03 0.00 96 1014.1
20240221140532 21 171 0.0 0.0 0.00 0.03 0.00 96 1014.2
20240221140029 21 171 0.0 0.0 0.00 0.03 0.00 96 1014.3
20240221135528 21 171 0.0 0.0 0.00 0.08 0.00 96 1014.4
20240221135028 21 171 0.0 0.0 0.00 0.08 0.00 96 1014.5
20240221134528 21 171 0.0 0.0 0.00 0.08 0.00 96 1014.6
20240221134027 21 171 0.0 0.0 0.00 0.08 0.00 95 1014.6
20240221133531 21 171 0.0 0.0 0.00 0.08 0.00 95 1014.6
20240221133027 21 171 0.0 0.0 0.00 0.08 0.00 95 1014.5
20240221132526 21 171 0.0 0.0 0.00 0.08 0.00 95 1014.5
20240221132024 21 172 0.0 0.0 0.00 0.08 0.00 95 1014.6
20240221131523 21 172 0.0 0.0 0.00 0.08 0.00 95 1014.8
20240221131026 21 172 0.0 0.0 0.00 0.08 0.00 95 1014.8
20240221130522 21 172 0.0 0.0 0.00 0.08 0.00 95 1014.9
20240221130025 21 172 0.0 0.0 0.00 0.08 0.00 95 1014.8
20240221125521 21 172 0.0 0.0 0.00 0.46 0.08 95 1014.8
20240221125023 21 172 0.0 0.0 0.00 0.46 0.08 95 1014.9
20240221124621 21 172 0.0 0.0 0.00 0.46 0.08 95 1014.9
20240221124020 21 157 0.0 0.0 0.00 0.46 0.08 95 1014.9
20240221123524 21 132 0.0 0.0 0.00 0.46 0.08 94 1014.9
20240221123024 21 132 0.0 0.0 0.00 0.46 0.08 94 1014.9
20240221122524 21 132 0.0 0.0 0.00 0.46 0.08 94 1014.8
20240221122020 21 132 0.0 0.0 0.00 0.46 0.08 94 1014.8
20240221121519 21 132 0.0 0.0 0.00 0.46 0.08 94 1014.8
20240221121022 21 132 0.0 0.0 0.00 0.46 0.08 94 1014.9
20240221120519 21 132 0.0 0.0 0.00 0.46 0.08 94 1014.7